sat.trackr.live / text

‹ back to catalog

STARLINK-36712

NORAD 67700 · 2026-025H

PAYLOAD ACTIVE UNKNOWN

§ Identity

Operator
Country
US
Launch date
2026-02-07
Launch site
AFWTR
Launch vehicle
Mass (kg)
RCS (m²)

Purposes: comms

External: N2YO · Heavens-Above · Gunter

§ Orbital elements

Epoch: 2026-05-25T01:11:58.663392Z

Period
93.91 min
Inclination
97.2851°
Eccentricity
0.0000462
Mean motion
15.33457334 rev/d
Perigee alt
465.2 km
Apogee alt
465.8 km
Semi-major
6,843.6 km
B*
8.4740e-4
RAAN
256.6441°
Arg perigee
77.7514°
Mean anomaly
282.3781°
Rev number
1,771

§ Raw data

STARLINK-367121 67700U 26025H   26145.04998453  .00027392  00000+0  84740-3 0  99932 67700  97.2851 256.6441 0000462  77.7514 282.3781 15.33457334 17710

JSON: /api/v1/satellites/67700 · /tle

For live sub-satellite position, see the globe view (requires WebGL).

§ Visibility from observer

Set your observer location to see the next 7 days of passes ≥ 10°. The values pass through the URL so the page stays shareable.

No JS? Fill the form by hand. The geolocation button needs JavaScript.